Regional Weather Roundup
Issued by NWS

Home | Current Version | Previous Version | Graphics & Text | Print | Product List | Glossary On
Versions: 1 2 3 4 5 6 7 8 9 10 11 12 13 14 15 16 17 18 19 20 21 22 23 24 25 26 27 28 29 30 31 32 33 34 35 36 37 38 39 40 41 42 43 44 45 46 47 48 49 50
000
ASUS43 KFSD 251602
RWRSD

WEATHER ROUNDUP FOR SOUTH DAKOTA
NATIONAL WEATHER SERVICE SIOUX FALLS SD
1100 AM CDT WED MAY 25 2016

NOTE: "FAIR" INDICATES FEW OR NO CLOUDS BELOW 12,000 FEET WITH NO
SIGNIFICANT WEATHER AND/OR OBSTRUCTIONS TO VISIBILITY.


SDZ001>005-009-010-012>017-251700-
NORTHWEST AND NORTH CENTRAL SOUTH DAKOTA

CITY           SKY/WX    TMP DP  RH WIND       PRES   REMARKS
BUFFALO          N/A     56  47  71 NW18      29.78R
FAITH            N/A     65  50  58 W12       29.81R
MOBRIDGE       CLOUDY    69  56  62 E7        29.75F
$$

SDZ012>016-024>037-041>051-057-063-072>074-251700-
SOUTHWEST AND SOUTH CENTRAL SOUTH DAKOTA

CITY           SKY/WX    TMP DP  RH WIND       PRES   REMARKS
RAPID CTY ARPT SUNNY     63  50  62 S6        29.84R
PIERRE         MOSUNNY   65  56  72 W15       29.78S
CUSTER         PTSUNNY   52  45  77 W14G21    29.92S
ELLSWORTH AFB  SUNNY     64  50  60 N3        29.83S
PHILIP         SUNNY     66  54  65 W9        29.80F
PINE RIDGE     SUNNY     63  50  62 W14       29.89R
WINNER         PTSUNNY   66  57  72 NW12      29.82R
$$

SDZ004>011-016>023-039-040-251700-
NORTHEAST SOUTH DAKOTA

CITY           SKY/WX    TMP DP  RH WIND       PRES   REMARKS
ABERDEEN       CLOUDY    67  59  75 NE6       29.73F
WATERTOWN      CLOUDY    66  61  84 S16G29    29.74F
SISSETON         N/A     65  61  87 S17       29.72F
$$

SDZ017-020-022-023-036>040-048>070-251700-
SOUTHEAST SOUTH DAKOTA

CITY           SKY/WX    TMP DP  RH WIND       PRES   REMARKS
SIOUX FALLS    PTSUNNY   70  60  70 SW12G20   29.81R
HURON          CLOUDY    67  60  78 W9        29.78R
MITCHELL       MOSUNNY   68  60  75 W8        29.80R
YANKTON        CLOUDY    70  59  68 S8        29.79S
$$

ABBREVIATIONS USED IN REMARKS
   TC - TEMPERATURE IN CELSIUS
  WCI - WIND CHILL INDEX
   HX - HEAT INDEX
  VSB - VISIBILITY





USA.gov is the U.S. government's official web portal to all federal, state and local government web resources and services.